DW7857 Weather Reports


Display with metric or nautical units.
time (UTC)temp
F
wind
direction
speed
MPH
gust
MPH
rain 1hr
in
rain 24hr
in
rain mn
in
humidity
%
barometer
mb
20260506154503 60 53 4.0 7.0 0.00 0.00 0.00 42 1016.4
20260506153603 61 74 2.0 5.0 0.00 0.00 0.00 40 1016.4
20260506152912 62 87 3.0 4.0 0.00 0.00 0.00 41 1016.5
20260506151803 62 31 4.0 8.0 0.00 0.00 0.00 42 1016.3
20260506150903 63 311 4.0 6.0 0.00 0.00 0.00 40 1016.4
20260506150214 63 290 4.0 8.0 0.00 0.00 0.00 41 1016.4
20260506145403 63 340 4.0 8.0 0.00 0.00 0.00 41 1016.4
20260506144713 63 106 3.0 4.0 0.00 0.00 0.00 42 1016.5
20260506143603 61 340 3.0 6.0 0.00 0.00 0.00 43 1016.7
20260506142703 60 357 3.0 4.0 0.00 0.00 0.00 44 1016.6
20260506141803 59 41 3.0 4.0 0.00 0.00 0.00 47 1016.9
20260506140903 59 343 3.0 4.0 0.00 0.00 0.00 45 1016.8
20260506140003 58 31 3.0 4.0 0.00 0.00 0.00 47 1016.9
20260506135403 58 11 3.0 4.0 0.00 0.00 0.00 47 1016.9
20260506134503 58 100 3.0 4.0 0.00 0.00 0.00 47 1016.8
20260506133603 58 36 3.0 5.0 0.00 0.00 0.00 47 1017.0
20260506132703 58 38 3.0 5.0 0.00 0.00 0.00 48 1017.3
20260506132013 58 352 3.0 6.0 0.00 0.00 0.00 49 1017.1
20260506130903 58 71 3.0 6.0 0.00 0.00 0.00 50 1017.1
20260506130004 58 1 4.0 6.0 0.00 0.00 0.00 50 1017.0
20260506125403 57 14 4.0 6.0 0.00 0.00 0.00 50 1017.0
20260506124503 57 91 3.0 5.0 0.00 0.00 0.00 50 1017.0
20260506123603 56 15 3.0 5.0 0.00 0.00 0.00 51 1017.1
20260506122913 56 41 4.0 6.0 0.00 0.00 0.00 51 1017.1
20260506121803 56 45 4.0 6.0 0.00 0.00 0.00 51 1017.0
20260506120903 55 27 4.0 5.0 0.00 0.00 0.00 51 1017.2
20260506120004 55 72 4.0 6.0 0.00 0.00 0.00 52 1017.0
20260506115613 55 97 4.0 6.0 0.00 0.00 0.00 52 1017.0
20260506114503 55 50 4.0 6.0 0.00 0.00 0.00 53 1017.1
20260506113603 54 61 4.0 5.0 0.00 0.00 0.00 60 1017.2
20260506112703 54 337 4.0 6.0 0.00 0.00 0.00 61 1017.3
20260506111803 54 345 4.0 6.0 0.00 0.00 0.00 61 1017.0
20260506110903 53 332 4.0 6.0 0.00 0.00 0.00 61 1017.2
20260506110003 53 39 5.0 7.0 0.00 0.00 0.00 61 1017.3
20260506105612 53 9 4.0 7.0 0.00 0.00 0.00 61 1017.2
20260506104714 54 7 3.0 4.0 0.00 0.00 0.00 62 1017.2
20260506103603 53 18 4.0 6.0 0.00 0.00 0.00 61 1017.2
20260506102913 53 30 4.0 6.0 0.00 0.00 0.00 63 1017.1
20260506101803 53 55 5.0 7.0 0.00 0.00 0.00 62 1017.3
20260506100903 52 79 4.0 5.0 0.00 0.00 0.00 62 1017.3
20260506100003 52 66 5.0 7.0 0.00 0.00 0.00 64 1017.3
20260506095403 52 48 5.0 7.0 0.00 0.00 0.00 64 1017.3
20260506094713 52 33 4.0 6.0 0.00 0.00 0.00 65 1017.2
20260506093603 51 72 6.0 7.0 0.00 0.00 0.00 68 1017.1
20260506092703 51 63 6.0 8.0 0.00 0.00 0.00 70 1017.2
20260506091803 51 38 6.0 8.0 0.00 0.00 0.00 72 1017.1
20260506090903 51 64 6.0 9.0 0.00 0.00 0.00 72 1017.0
20260506090003 50 76 6.0 9.0 0.00 0.00 0.00 72 1017.1
20260506085403 50 67 5.0 8.0 0.00 0.00 0.00 71 1017.1
20260506084503 50 53 5.0 8.0 0.00 0.00 0.00 71 1017.0
20260506083812 51 82 5.0 6.0 0.00 0.00 0.00 72 1016.9
20260506082703 50 66 6.0 8.0 0.00 0.00 0.00 72 1017.2
20260506081803 49 78 6.0 8.0 0.00 0.00 0.00 72 1017.1
20260506081112 49 59 6.0 8.0 0.00 0.00 0.00 72 1016.8
20260506072913 49 77 5.0 7.0 0.00 0.00 0.00 78 1016.5
20260506072013 49 25 5.0 6.0 0.00 0.00 0.00 79 1016.7
20260506070903 48 85 5.0 6.0 0.00 0.00 0.00 80 1016.8
20260506070213 48 93 5.0 6.0 0.00 0.00 0.00 80 1016.6
20260506061803 48 46 4.0 6.0 0.00 0.00 0.00 79 1016.6
20260506060903 49 58 4.0 5.0 0.00 0.00 0.00 79 1016.2
20260506060213 49 36 4.0 5.0 0.00 0.00 0.00 78 1016.5
20260506050903 49 59 5.0 7.0 0.00 0.00 0.00 80 1016.2
20260506050213 49 71 5.0 7.0 0.00 0.00 0.00 80 1016.2
20260506044503 49 74 3.0 4.0 0.00 0.00 0.00 80 1016.2
20260506043603 49 14 2.0 5.0 0.00 0.00 0.00 80 1016.1
20260506042912 49 48 3.0 5.0 0.00 0.00 0.00 80 1015.9
20260506041803 49 1 3.0 4.0 0.00 0.00 0.00 80 1015.9
20260506040903 49 40 3.0 4.0 0.00 0.00 0.00 80 1016.2
20260506040003 49 27 3.0 4.0 0.00 0.00 0.00 80 1015.9
20260506035614 49 30 3.0 4.0 0.00 0.00 0.00 80 1015.8
20260506034713 49 64 3.0 3.0 0.00 0.00 0.00 80 1015.7
20260506033603 49 81 2.0 3.0 0.00 0.00 0.00 80 1015.8
20260506032703 49 48 2.0 3.0 0.00 0.00 0.00 80 1015.7
20260506031803 49 87 2.0 3.0 0.00 0.00 0.00 80 1015.9
20260506030903 49 14 2.0 3.0 0.00 0.00 0.00 80 1016.1
20260506030003 49 62 2.0 3.0 0.00 0.00 0.00 80 1015.8
20260506025403 49 66 3.0 3.0 0.00 0.00 0.00 80 1015.9
20260506024503 49 42 2.0 3.0 0.00 0.00 0.00 79 1016.2
20260506023603 49 58 2.0 3.0 0.00 0.00 0.00 79 1016.0
20260506022703 49 42 2.0 3.0 0.00 0.00 0.00 78 1015.8
20260506021803 49 32 2.0 4.0 0.00 0.00 0.00 78 1016.1
20260506020903 49 22 3.0 4.0 0.00 0.00 0.00 77 1015.9
20260506020003 49 25 2.0 3.0 0.00 0.00 0.00 77 1015.9
20260506015613 49 37 3.0 3.0 0.00 0.00 0.00 76 1016.1
20260506014503 49 32 2.0 3.0 0.00 0.00 0.00 76 1016.0
20260506013603 50 58 2.0 3.0 0.00 0.00 0.00 76 1016.0
20260506012703 50 38 2.0 3.0 0.00 0.00 0.00 76 1016.0
20260506011803 49 354 2.0 2.0 0.00 0.00 0.00 75 1016.1
20260506011114 50 352 2.0 3.0 0.00 0.00 0.00 75 1016.3
20260506010004 50 346 3.0 4.0 0.00 0.00 0.00 76 1016.2
20260506005403 50 25 3.0 4.0 0.00 0.00 0.00 76 1016.3
20260506004503 50 27 2.0 4.0 0.00 0.00 0.00 76 1016.5
20260506003603 50 69 2.0 3.0 0.00 0.00 0.00 75 1016.5
20260506002703 50 55 2.0 3.0 0.00 0.00 0.00 75 1016.5
20260506001803 50 18 2.0 4.0 0.00 0.00 0.00 75 1016.4
20260506000903 50 55 2.0 4.0 0.00 0.00 0.00 75 1016.3
20260506000003 50 48 2.0 4.0 0.00 0.00 0.00 74 1016.4
20260505235403 50 54 2.0 3.0 0.00 0.00 0.00 74 1016.7
20260505234503 50 28 2.0 3.0 0.00 0.00 0.00 74 1016.3
20260505233603 50 16 2.0 3.0 0.00 0.00 0.00 74 1016.4
20260505232703 50 6 2.0 3.0 0.00 0.00 0.00 73 1016.6
20260505231803 51 348 3.0 4.0 0.00 0.00 0.00 73 1016.2
20260505231113 51 351 2.0 4.0 0.00 0.00 0.00 73 1016.5
20260505230004 51 342 3.0 5.0 0.00 0.00 0.00 72 1016.6
20260505225403 51 5 2.0 2.0 0.00 0.00 0.00 72 1016.8
20260505224503 51 39 2.0 3.0 0.00 0.00 0.00 72 1016.7
20260505223603 51 57 2.0 3.0 0.00 0.00 0.00 72 1016.6
20260505222703 51 66 2.0 3.0 0.00 0.00 0.00 71 1016.7
20260505222013 51 11 2.0 3.0 0.00 0.00 0.00 71 1016.7
20260505220903 51 12 2.0 4.0 0.00 0.00 0.00 71 1016.6
20260505220003 51 5 3.0 4.0 0.00 0.00 0.00 71 1016.6
20260505215403 51 74 2.0 3.0 0.00 0.00 0.00 71 1016.6
20260505214713 51 40 3.0 4.0 0.00 0.00 0.00 70 1016.6
20260505213603 51 40 3.0 4.0 0.00 0.00 0.00 70 1016.7
20260505212703 51 54 3.0 4.0 0.00 0.00 0.00 70 1016.6
20260505211803 52 38 3.0 5.0 0.00 0.00 0.00 70 1016.9
20260505210903 52 85 3.0 4.0 0.00 0.00 0.00 70 1016.8
20260505210003 52 98 3.0 5.0 0.00 0.00 0.00 70 1016.8
20260505205403 52 79 3.0 5.0 0.00 0.00 0.00 70 1016.7
20260505204503 52 359 4.0 5.0 0.00 0.00 0.00 70 1016.7
20260505203603 52 19 3.0 5.0 0.00 0.00 0.00 69 1016.6
20260505202913 53 13 3.0 4.0 0.00 0.00 0.00 69 1016.7
20260505202013 53 65 3.0 4.0 0.00 0.00 0.00 68 1016.6
20260505200903 53 27 3.0 4.0 0.00 0.00 0.00 67 1016.3
20260505200003 53 68 3.0 4.0 0.00 0.00 0.00 67 1016.3
20260505195613 53 95 3.0 4.0 0.00 0.00 0.00 67 1016.4
20260505194503 54 68 4.0 5.0 0.00 0.00 0.00 66 1016.1
20260505193603 54 52 4.0 5.0 0.00 0.00 0.00 66 1016.0
20260505192913 54 53 4.0 6.0 0.00 0.00 0.00 66 1016.1
20260505191803 55 46 3.0 4.0 0.00 0.00 0.00 62 1016.0
20260505191113 55 4 3.0 4.0 0.00 0.00 0.00 62 1016.1
20260505190213 55 338 4.0 6.0 0.00 0.00 0.00 61 1015.9
20260505185612 55 327 4.0 5.0 0.00 0.00 0.00 61 1016.1
20260505184503 55 25 3.0 4.0 0.00 0.00 0.00 61 1016.0
20260505183813 55 332 4.0 7.0 0.00 0.00 0.00 61 1015.9
20260505182703 55 335 4.0 7.0 0.00 0.00 0.00 61 1015.8
20260505181803 56 317 5.0 8.0 0.00 0.00 0.00 61 1015.7
20260505180903 56 327 6.0 9.0 0.00 0.00 0.00 60 1015.8
20260505180003 57 334 6.0 9.0 0.00 0.00 0.00 56 1016.0
20260505175403 57 140 6.0 8.0 0.00 0.00 0.00 55 1015.8
20260505174504 58 319 6.0 11.0 0.00 0.00 0.00 55 1015.7
20260505173813 58 325 6.0 11.0 0.00 0.00 0.00 54 1015.8
20260505172703 58 336 8.0 11.0 0.00 0.00 0.00 52 1015.8
20260505171803 58 12 7.0 9.0 0.00 0.00 0.00 52 1016.1
20260505170903 59 54 7.0 11.0 0.00 0.00 0.00 51 1016.0
20260505170212 60 22 6.0 11.0 0.00 0.00 0.00 51 1015.7
20260505165403 60 333 7.0 11.0 0.00 0.00 0.00 51 1016.0
20260505164503 60 15 7.0 10.0 0.00 0.00 0.00 51 1015.8
20260505163603 61 19 6.0 10.0 0.00 0.00 0.00 50 1015.9
20260505162703 60 334 8.0 11.0 0.00 0.00 0.00 48 1015.8
20260505161803 60 319 7.0 9.0 0.00 0.00 0.00 50 1015.8
20260505160903 61 49 6.0 8.0 0.00 0.00 0.00 50 1015.8